"read_dt","SO2 (ppb)","flags","PMT voltage (V)","lamp voltage (V)","lamp intensity (Hz)","internal temp (C)","react chamber temp (C)","sample flow (l/min)","pres (mmHg)","SO2 bkg (ppb)","SO2 coefficient"
2016-05-10 00:00:00,1896E-3,5C000400,-0724,0833,12178,028.8,045.4,0.254,754.2,01.17,0.508
2016-05-10 00:01:00,1901E-3,5C000400,-0724,0833,12116,028.9,045.5,0.254,754.2,01.17,0.508
2016-05-10 00:02:00,1897E-3,5C000400,-0724,0833,12104,028.8,045.4,0.254,754.3,01.17,0.508
2016-05-10 00:03:00,1990E-3,5C000400,-0724,0834,12231,028.8,045.4,0.253,754.3,01.17,0.508
2016-05-10 00:04:00,1833E-3,5C000400,-0724,0833,12259,028.9,045.4,0.254,754.2,01.17,0.508
2016-05-10 00:05:00,1905E-3,5C000400,-0724,0834,12030,028.8,045.4,0.253,754.3,01.17,0.508
2016-05-10 00:06:00,1772E-3,5C000400,-0724,0833,12156,028.8,045.5,0.254,754.3,01.17,0.508
2016-05-10 00:07:00,1955E-3,5C000400,-0724,0833,12271,028.9,045.5,0.254,754.2,01.17,0.508
2016-05-10 00:08:00,1849E-3,5C000400,-0724,0834,12059,028.9,045.4,0.254,754.2,01.17,0.508
2016-05-10 00:09:00,1906E-3,5C000400,-0724,0833,12171,028.9,045.4,0.254,754.2,01.17,0.508
2016-05-10 00:10:00,1865E-3,5C000400,-0724,0834,12090,028.9,045.4,0.254,754.2,01.17,0.508
2016-05-10 00:11:00,1936E-3,5C000400,-0724,0834,12152,028.9,045.4,0.253,754.3,01.17,0.508
2016-05-10 00:12:00,1981E-3,5C000400,-0724,0834,12143,028.8,045.4,0.254,754.2,01.17,0.508
2016-05-10 00:13:00,1827E-3,5C000400,-0724,0834,12139,028.9,045.5,0.254,754.2,01.17,0.508
2016-05-10 00:14:00,1753E-3,5C000400,-0724,0833,12175,028.9,045.4,0.254,754.1,01.17,0.508
2016-05-10 00:15:00,1842E-3,5C000400,-0724,0834,12204,028.9,045.5,0.254,754.1,01.17,0.508
2016-05-10 00:16:00,1838E-3,5C000400,-0724,0833,12118,028.9,045.4,0.253,754.2,01.17,0.508
2016-05-10 00:17:00,1825E-3,5C000400,-0724,0833,12186,028.9,045.5,0.254,754.2,01.17,0.508
2016-05-10 00:18:00,1776E-3,5C000400,-0724,0833,12101,028.8,045.4,0.253,754.1,01.17,0.508
2016-05-10 00:19:00,1892E-3,5C000400,-0724,0833,12128,028.9,045.4,0.254,754.2,01.17,0.508
2016-05-10 00:20:00,1726E-3,5C000400,-0724,0834,12095,028.9,045.4,0.253,754.2,01.17,0.508
2016-05-10 00:21:00,1927E-3,5C000400,-0724,0833,12044,028.9,045.4,0.254,754.2,01.17,0.508
2016-05-10 00:22:00,1860E-3,5C000400,-0724,0834,12190,028.9,045.4,0.253,754.2,01.17,0.508
2016-05-10 00:23:00,1960E-3,5C000400,-0724,0834,12243,028.9,045.5,0.254,754.1,01.17,0.508
2016-05-10 00:24:00,1888E-3,5C000400,-0724,0833,12162,028.9,045.5,0.254,754.2,01.17,0.508
2016-05-10 00:25:00,1906E-3,5C000400,-0724,0833,12220,028.9,045.5,0.254,754.2,01.17,0.508
2016-05-10 00:26:00,2116E-3,5C000400,-0724,0834,12126,028.9,045.4,0.254,754.2,01.17,0.508
2016-05-10 00:27:00,1914E-3,5C000400,-0724,0833,12110,028.9,045.4,0.254,754.1,01.17,0.508
2016-05-10 00:28:00,2069E-3,5C000400,-0724,0834,12217,028.9,045.4,0.254,754.1,01.17,0.508
2016-05-10 00:29:00,1924E-3,5C000400,-0724,0833,12115,028.9,045.5,0.253,754.1,01.17,0.508
2016-05-10 00:30:00,1882E-3,5C000400,-0724,0833,12231,028.9,045.5,0.254,754.1,01.17,0.508
2016-05-10 00:31:00,1867E-3,5C000400,-0724,0833,12183,028.9,045.4,0.253,754.2,01.17,0.508
2016-05-10 00:32:00,1846E-3,5C000400,-0724,0833,12045,028.9,045.5,0.254,754.1,01.17,0.508
2016-05-10 00:33:00,1914E-3,5C000400,-0724,0833,12075,028.9,045.5,0.253,754.1,01.17,0.508
2016-05-10 00:34:00,1912E-3,5C000400,-0724,0833,12125,028.9,045.5,0.254,754.1,01.17,0.508
2016-05-10 00:35:00,1806E-3,5C000400,-0724,0834,12190,028.9,045.5,0.254,754.1,01.17,0.508
2016-05-10 00:36:00,1792E-3,5C000400,-0724,0834,12198,028.9,045.5,0.254,754.1,01.17,0.508
2016-05-10 00:37:00,1875E-3,5C000400,-0724,0834,12187,028.9,045.5,0.254,754.1,01.17,0.508
2016-05-10 00:38:00,1906E-3,5C000400,-0724,0833,12104,028.9,045.4,0.253,754.2,01.17,0.508
2016-05-10 00:39:00,2012E-3,5C000400,-0724,0833,12161,028.9,045.4,0.254,754.1,01.17,0.508
2016-05-10 00:40:00,1812E-3,5C000400,-0724,0834,12154,028.9,045.4,0.253,754.1,01.17,0.508
2016-05-10 00:41:00,1813E-3,5C000400,-0724,0834,12184,028.9,045.4,0.254,754.2,01.17,0.508
2016-05-10 00:42:00,1800E-3,5C000400,-0724,0833,12248,028.9,045.4,0.253,754.2,01.17,0.508
2016-05-10 00:43:00,1908E-3,5C000400,-0724,0833,12231,028.9,045.5,0.254,754.2,01.17,0.508
2016-05-10 00:44:00,1895E-3,5C000400,-0724,0833,12317,028.9,045.5,0.254,754.2,01.17,0.508
2016-05-10 00:45:00,1770E-3,5C000400,-0724,0833,12214,028.9,045.4,0.253,754.2,01.17,0.508
2016-05-10 00:46:00,1925E-3,5C000400,-0724,0833,12058,028.9,045.5,0.254,754.2,01.17,0.508
2016-05-10 00:47:00,1822E-3,5C000400,-0724,0834,12242,028.9,045.4,0.253,754.2,01.17,0.508
2016-05-10 00:48:00,1794E-3,5C000400,-0724,0834,12114,028.9,045.5,0.254,754.2,01.17,0.508
2016-05-10 00:49:00,1944E-3,5C000400,-0724,0833,11945,028.9,045.4,0.253,754.2,01.17,0.508
2016-05-10 00:50:00,1849E-3,5C000400,-0724,0833,12117,028.9,045.4,0.254,754.2,01.17,0.508
2016-05-10 00:51:00,1851E-3,5C000400,-0724,0833,12061,028.9,045.4,0.253,754.2,01.17,0.508
2016-05-10 00:52:00,1875E-3,5C000400,-0724,0834,12174,028.9,045.5,0.253,754.3,01.17,0.508
2016-05-10 00:53:00,1894E-3,5C000400,-0724,0833,12044,028.9,045.5,0.254,754.3,01.17,0.508
2016-05-10 00:54:00,1828E-3,5C000400,-0724,0833,12086,028.9,045.5,0.253,754.3,01.17,0.508
2016-05-10 00:55:00,1830E-3,5C000400,-0724,0834,12151,029.0,045.4,0.254,754.2,01.17,0.508
2016-05-10 00:56:00,1785E-3,5C000400,-0724,0833,12002,028.9,045.4,0.253,754.2,01.17,0.508
2016-05-10 00:57:00,1845E-3,5C000400,-0724,0833,12114,028.9,045.4,0.254,754.2,01.17,0.508
2016-05-10 00:58:00,1837E-3,5C000400,-0724,0833,12119,029.0,045.4,0.253,754.3,01.17,0.508
2016-05-10 00:59:00,1908E-3,5C000400,-0724,0833,12087,028.9,045.5,0.254,754.2,01.17,0.508
2016-05-10 01:00:00,1850E-3,5C000400,-0724,0833,12100,029.0,045.4,0.254,754.2,01.17,0.508
2016-05-10 01:01:00,1772E-3,5C000400,-0724,0832,12131,029.0,045.4,0.253,754.2,01.17,0.508
2016-05-10 01:02:00,2033E-3,5C000400,-0724,0833,12334,029.0,045.4,0.254,754.2,01.17,0.508
2016-05-10 01:03:00,1837E-3,5C000400,-0724,0833,12135,029.0,045.4,0.253,754.2,01.17,0.508
2016-05-10 01:04:00,2025E-3,5C000400,-0724,0834,12146,029.0,045.5,0.254,754.2,01.17,0.508
2016-05-10 01:05:00,2026E-3,5C000400,-0724,0833,12153,029.0,045.4,0.253,754.2,01.17,0.508
2016-05-10 01:06:00,1882E-3,5C000400,-0724,0833,12195,029.0,045.5,0.254,754.2,01.17,0.508
2016-05-10 01:07:00,1692E-3,5C000400,-0724,0834,12221,029.0,045.5,0.253,754.2,01.17,0.508
2016-05-10 01:08:00,1851E-3,5C000400,-0724,0833,12193,029.0,045.5,0.254,754.2,01.17,0.508
2016-05-10 01:09:00,1864E-3,5C000400,-0724,0833,12215,029.0,045.5,0.253,754.2,01.17,0.508
2016-05-10 01:10:00,1825E-3,5C000400,-0724,0833,12138,029.0,045.5,0.254,754.2,01.17,0.508
2016-05-10 01:11:00,1926E-3,5C000400,-0724,0834,12285,029.0,045.5,0.253,754.2,01.17,0.508
2016-05-10 01:12:00,1980E-3,5C000400,-0724,0833,12149,029.0,045.4,0.254,754.2,01.17,0.508
2016-05-10 01:13:00,1754E-3,5C000400,-0724,0833,12071,029.0,045.5,0.253,754.2,01.17,0.508
2016-05-10 01:14:00,1880E-3,5C000400,-0724,0834,12213,029.0,045.5,0.253,754.2,01.17,0.508
2016-05-10 01:15:00,1809E-3,5C000400,-0724,0834,11901,029.0,045.4,0.253,754.2,01.17,0.508
2016-05-10 01:16:00,1795E-3,5C000400,-0724,0834,11933,029.0,045.5,0.253,754.3,01.17,0.508
2016-05-10 01:17:00,1962E-3,5C000400,-0724,0834,12053,029.0,045.4,0.253,754.3,01.17,0.508
2016-05-10 01:18:00,1858E-3,5C000400,-0724,0833,12053,029.0,045.5,0.253,754.3,01.17,0.508
2016-05-10 01:19:00,1867E-3,5C000400,-0724,0833,12161,029.0,045.5,0.254,754.2,01.17,0.508
2016-05-10 01:20:00,1915E-3,5C000400,-0724,0834,12177,029.0,045.5,0.253,754.2,01.17,0.508
2016-05-10 01:21:00,1872E-3,5C000400,-0724,0833,12101,029.0,045.4,0.254,754.3,01.17,0.508
2016-05-10 01:22:00,1904E-3,5C000400,-0724,0833,11991,029.0,045.5,0.253,754.3,01.17,0.508
2016-05-10 01:23:00,1883E-3,5C000400,-0724,0833,12151,029.0,045.4,0.253,754.3,01.17,0.508
2016-05-10 01:24:00,1898E-3,5C000400,-0724,0834,12012,029.1,045.5,0.253,754.3,01.17,0.508
2016-05-10 01:25:00,1850E-3,5C000400,-0724,0834,12095,029.0,045.5,0.253,754.3,01.17,0.508
2016-05-10 01:26:00,1907E-3,5C000400,-0724,0834,11917,029.0,045.4,0.253,754.3,01.17,0.508
2016-05-10 01:27:00,1820E-3,5C000400,-0724,0834,12249,029.0,045.4,0.253,754.2,01.17,0.508
2016-05-10 01:28:00,1882E-3,5C000400,-0724,0833,12048,029.0,045.4,0.253,754.2,01.17,0.508
2016-05-10 01:29:00,1948E-3,5C000400,-0724,0833,12167,029.0,045.4,0.253,754.2,01.17,0.508
2016-05-10 01:30:00,1824E-3,5C000400,-0724,0833,12238,029.1,045.5,0.254,754.3,01.17,0.508
2016-05-10 01:31:00,1797E-3,5C000400,-0724,0833,12163,029.1,045.4,0.253,754.2,01.17,0.508
2016-05-10 01:32:00,1829E-3,5C000400,-0724,0833,12164,029.1,045.5,0.253,754.2,01.17,0.508
2016-05-10 01:33:00,2001E-3,5C000400,-0724,0834,12133,029.1,045.4,0.253,754.2,01.17,0.508
2016-05-10 01:34:00,1873E-3,5C000400,-0724,0833,12161,029.1,045.4,0.253,754.2,01.17,0.508
2016-05-10 01:35:00,1849E-3,5C000400,-0724,0833,12151,029.1,045.5,0.253,754.2,01.17,0.508
2016-05-10 01:36:00,1927E-3,5C000400,-0724,0833,12241,029.1,045.4,0.253,754.2,01.17,0.508
2016-05-10 01:37:00,1863E-3,5C000400,-0724,0833,12102,029.1,045.5,0.253,754.2,01.17,0.508
2016-05-10 01:38:00,1737E-3,5C000400,-0724,0833,12091,029.1,045.5,0.253,754.3,01.17,0.508
2016-05-10 01:39:00,1833E-3,5C000400,-0724,0834,12076,029.1,045.5,0.253,754.3,01.17,0.508
2016-05-10 01:40:00,1912E-3,5C000400,-0724,0833,12140,029.1,045.5,0.253,754.2,01.17,0.508
2016-05-10 01:41:00,1952E-3,5C000400,-0724,0833,12201,029.1,045.5,0.253,754.3,01.17,0.508
2016-05-10 01:42:00,1912E-3,5C000400,-0724,0834,12329,029.1,045.5,0.253,754.3,01.17,0.508
2016-05-10 01:43:00,1786E-3,5C000400,-0724,0833,12006,029.1,045.5,0.253,754.2,01.17,0.508
2016-05-10 01:44:00,2024E-3,5C000400,-0724,0834,11947,029.1,045.5,0.253,754.2,01.17,0.508
2016-05-10 01:45:00,1847E-3,5C000400,-0724,0833,12187,029.1,045.4,0.253,754.3,01.17,0.508
2016-05-10 01:46:00,2047E-3,5C000400,-0724,0833,12171,029.1,045.4,0.253,754.3,01.17,0.508
2016-05-10 01:47:00,1902E-3,5C000400,-0724,0834,12229,029.1,045.4,0.253,754.3,01.17,0.508
2016-05-10 01:48:00,1894E-3,5C000400,-0724,0834,12121,029.1,045.4,0.254,754.3,01.17,0.508
2016-05-10 01:49:00,1795E-3,5C000400,-0724,0833,12129,029.1,045.5,0.253,754.3,01.17,0.508
2016-05-10 01:50:00,1855E-3,5C000400,-0724,0833,12204,029.1,045.5,0.253,754.3,01.17,0.508
2016-05-10 01:51:00,1948E-3,5C000400,-0724,0833,12158,029.1,045.5,0.253,754.2,01.17,0.508
2016-05-10 01:52:00,1958E-3,5C000400,-0724,0834,12278,029.1,045.5,0.253,754.2,01.17,0.508
2016-05-10 01:53:00,1729E-3,5C000400,-0724,0834,12213,029.1,045.5,0.253,754.3,01.17,0.508
2016-05-10 01:54:00,1834E-3,5C000400,-0724,0833,12233,029.2,045.5,0.253,754.3,01.17,0.508
2016-05-10 01:55:00,1955E-3,5C000400,-0724,0833,12261,029.1,045.4,0.253,754.3,01.17,0.508
2016-05-10 01:56:00,1838E-3,5C000400,-0724,0833,12025,029.1,045.5,0.253,754.2,01.17,0.508
2016-05-10 01:57:00,1774E-3,5C000400,-0724,0833,12085,029.1,045.5,0.253,754.2,01.17,0.508
2016-05-10 01:58:00,1859E-3,5C000400,-0724,0834,12220,029.1,045.5,0.253,754.3,01.17,0.508
2016-05-10 01:59:00,1941E-3,5C000400,-0724,0834,12214,029.1,045.4,0.253,754.2,01.17,0.508
2016-05-10 02:00:00,1910E-3,5C000400,-0724,0834,12098,029.2,045.5,0.253,754.3,01.17,0.508
2016-05-10 02:01:00,2006E-3,5C000400,-0724,0833,12146,029.2,045.4,0.253,754.3,01.17,0.508
2016-05-10 02:02:00,1904E-3,5C000400,-0724,0834,12213,029.2,045.4,0.253,754.3,01.17,0.508
2016-05-10 02:03:00,1867E-3,5C000400,-0724,0834,12086,029.2,045.4,0.253,754.3,01.17,0.508
2016-05-10 02:04:00,1781E-3,5C000400,-0724,0833,12237,029.2,045.5,0.253,754.3,01.17,0.508
2016-05-10 02:05:00,1947E-3,5C000400,-0724,0833,12217,029.2,045.5,0.253,754.3,01.17,0.508
2016-05-10 02:06:00,1754E-3,5C000400,-0724,0834,12197,029.2,045.4,0.253,754.3,01.17,0.508
2016-05-10 02:07:00,1889E-3,5C000400,-0724,0833,12063,029.2,045.5,0.253,754.2,01.17,0.508
2016-05-10 02:08:00,1896E-3,5C000400,-0724,0835,12278,029.2,045.5,0.254,754.2,01.17,0.508
2016-05-10 02:09:00,1910E-3,5C000400,-0724,0833,11999,029.2,045.5,0.253,754.2,01.17,0.508
2016-05-10 02:10:00,1831E-3,5C000400,-0724,0833,12161,029.2,045.5,0.254,754.2,01.17,0.508
2016-05-10 02:11:00,1733E-3,5C000400,-0724,0833,12123,029.2,045.5,0.253,754.3,01.17,0.508
2016-05-10 02:12:00,2018E-3,5C000400,-0724,0833,12117,029.2,045.5,0.253,754.3,01.17,0.508
2016-05-10 02:13:00,1864E-3,5C000400,-0724,0833,12110,029.2,045.5,0.253,754.2,01.17,0.508
2016-05-10 02:14:00,1905E-3,5C000400,-0724,0833,12183,029.2,045.5,0.253,754.3,01.17,0.508
2016-05-10 02:15:00,1820E-3,5C000400,-0724,0834,12226,029.2,045.4,0.253,754.3,01.17,0.508
2016-05-10 02:16:00,1934E-3,5C000400,-0724,0833,12214,029.2,045.4,0.253,754.3,01.17,0.508
2016-05-10 02:17:00,1814E-3,5C000400,-0724,0834,12231,029.2,045.4,0.253,754.3,01.17,0.508
2016-05-10 02:18:00,1885E-3,5C000400,-0724,0834,12116,029.2,045.4,0.253,754.3,01.17,0.508
2016-05-10 02:19:00,1830E-3,5C000400,-0724,0834,12076,029.3,045.4,0.253,754.2,01.17,0.508
2016-05-10 02:20:00,1894E-3,5C000400,-0724,0834,12050,029.3,045.5,0.253,754.2,01.17,0.508
2016-05-10 02:21:00,1910E-3,5C000400,-0724,0833,12142,029.3,045.5,0.253,754.3,01.17,0.508
2016-05-10 02:22:00,1900E-3,5C000400,-0724,0834,12259,029.3,045.5,0.253,754.2,01.17,0.508
2016-05-10 02:23:00,1903E-3,5C000400,-0724,0834,11981,029.3,045.4,0.253,754.3,01.17,0.508
2016-05-10 02:24:00,1859E-3,5C000400,-0724,0834,12113,029.3,045.5,0.253,754.2,01.17,0.508
2016-05-10 02:25:00,1776E-3,5C000400,-0724,0833,12084,029.3,045.5,0.253,754.3,01.17,0.508
2016-05-10 02:26:00,1922E-3,5C000400,-0724,0834,12219,029.3,045.5,0.253,754.3,01.17,0.508
2016-05-10 02:27:00,1789E-3,5C000400,-0724,0834,12130,029.3,045.5,0.253,754.3,01.17,0.508
2016-05-10 02:28:00,2026E-3,5C000400,-0724,0834,12187,029.3,045.5,0.252,754.3,01.17,0.508
2016-05-10 02:29:00,1971E-3,5C000400,-0724,0833,12276,029.3,045.5,0.253,754.3,01.17,0.508
2016-05-10 02:30:00,1974E-3,5C000400,-0724,0834,12226,029.3,045.5,0.253,754.3,01.17,0.508
2016-05-10 02:31:00,1942E-3,5C000400,-0724,0834,12042,029.3,045.5,0.253,754.3,01.17,0.508
2016-05-10 02:32:00,1963E-3,5C000400,-0724,0834,12238,029.3,045.5,0.253,754.3,01.17,0.508
2016-05-10 02:33:00,1928E-3,5C000400,-0724,0833,11981,029.3,045.5,0.253,754.3,01.17,0.508
2016-05-10 02:34:00,1917E-3,5C000400,-0724,0833,12266,029.3,045.5,0.253,754.3,01.17,0.508
2016-05-10 02:35:00,1971E-3,5C000400,-0724,0834,12233,029.3,045.5,0.253,754.3,01.17,0.508
2016-05-10 02:36:00,1843E-3,5C000400,-0724,0833,12143,029.3,045.5,0.253,754.3,01.17,0.508
2016-05-10 02:37:00,1862E-3,5C000400,-0724,0833,12125,029.3,045.5,0.253,754.3,01.17,0.508
2016-05-10 02:38:00,1869E-3,5C000400,-0724,0833,12141,029.3,045.5,0.253,754.3,01.17,0.508
2016-05-10 02:39:00,1786E-3,5C000400,-0724,0834,12101,029.3,045.5,0.253,754.3,01.17,0.508
2016-05-10 02:40:00,1884E-3,5C000400,-0724,0833,12155,029.3,045.5,0.253,754.3,01.17,0.508
2016-05-10 02:41:00,1859E-3,5C000400,-0724,0834,12224,029.3,045.5,0.252,754.3,01.17,0.508
2016-05-10 02:42:00,1853E-3,5C000400,-0724,0833,12240,029.3,045.5,0.253,754.3,01.17,0.508
2016-05-10 02:43:00,1860E-3,5C000400,-0724,0833,12110,029.3,045.5,0.252,754.3,01.17,0.508
2016-05-10 02:44:00,1908E-3,5C000400,-0724,0834,12046,029.4,045.5,0.253,754.4,01.17,0.508
2016-05-10 02:45:00,1872E-3,5C000400,-0724,0832,12226,029.3,045.5,0.253,754.3,01.17,0.508
2016-05-10 02:46:00,1903E-3,5C000400,-0724,0834,12171,029.3,045.5,0.253,754.3,01.17,0.508
2016-05-10 02:47:00,1964E-3,5C000400,-0724,0833,12263,029.4,045.5,0.253,754.4,01.17,0.508
2016-05-10 02:48:00,1894E-3,5C000400,-0724,0834,12134,029.4,045.5,0.253,754.3,01.17,0.508
2016-05-10 02:49:00,2001E-3,5C000400,-0724,0833,12223,029.4,045.5,0.253,754.4,01.17,0.508
2016-05-10 02:50:00,1884E-3,5C000400,-0724,0833,12162,029.4,045.4,0.253,754.4,01.17,0.508
2016-05-10 02:51:00,1683E-3,5C000400,-0724,0834,12279,029.4,045.5,0.253,754.4,01.17,0.508
2016-05-10 02:52:00,1929E-3,5C000400,-0724,0834,12205,029.4,045.5,0.253,754.4,01.17,0.508
2016-05-10 02:53:00,1884E-3,5C000400,-0724,0834,12139,029.4,045.5,0.253,754.4,01.17,0.508
2016-05-10 02:54:00,1947E-3,5C000400,-0724,0834,12088,029.4,045.5,0.252,754.4,01.17,0.508
2016-05-10 02:55:00,1847E-3,5C000400,-0724,0834,12037,029.4,045.5,0.253,754.4,01.17,0.508
2016-05-10 02:56:00,1637E-3,5C000400,-0724,0834,12169,029.4,045.5,0.253,754.4,01.17,0.508
2016-05-10 02:57:00,1887E-3,5C000400,-0724,0833,12054,029.4,045.5,0.252,754.3,01.17,0.508
2016-05-10 02:58:00,1881E-3,5C000400,-0724,0834,12176,029.4,045.4,0.253,754.4,01.17,0.508
2016-05-10 02:59:00,1906E-3,5C000400,-0724,0834,12098,029.4,045.4,0.252,754.3,01.17,0.508
2016-05-10 03:00:00,1975E-3,5C000400,-0724,0833,12124,029.4,045.5,0.253,754.3,01.17,0.508
2016-05-10 03:01:00,1727E-3,5C000400,-0724,0833,12214,029.4,045.5,0.252,754.4,01.17,0.508
2016-05-10 03:02:00,1882E-3,5C000400,-0724,0834,12234,029.4,045.5,0.253,754.3,01.17,0.508
2016-05-10 03:03:00,1945E-3,5C000400,-0724,0833,12140,029.4,045.5,0.252,754.3,01.17,0.508
2016-05-10 03:04:00,1755E-3,5C000400,-0724,0834,12054,029.4,045.5,0.253,754.3,01.17,0.508
2016-05-10 03:05:00,1854E-3,5C000400,-0724,0833,12236,029.5,045.5,0.253,754.3,01.17,0.508
2016-05-10 03:06:00,1853E-3,5C000400,-0724,0834,12047,029.4,045.5,0.253,754.3,01.17,0.508
2016-05-10 03:07:00,1869E-3,5C000400,-0724,0833,12164,029.4,045.4,0.253,754.3,01.17,0.508
2016-05-10 03:08:00,1975E-3,5C000400,-0724,0834,12090,029.5,045.5,0.253,754.3,01.17,0.508
2016-05-10 03:09:00,1870E-3,5C000400,-0724,0834,12184,029.5,045.5,0.253,754.2,01.17,0.508
2016-05-10 03:10:00,1929E-3,5C000400,-0724,0834,12184,029.5,045.5,0.253,754.2,01.17,0.508
2016-05-10 03:11:00,1905E-3,5C000400,-0724,0833,12298,029.5,045.4,0.252,754.3,01.17,0.508
2016-05-10 03:12:00,2004E-3,5C000400,-0724,0834,12185,029.5,045.4,0.253,754.3,01.17,0.508
2016-05-10 03:13:00,1871E-3,5C000400,-0724,0834,12043,029.5,045.5,0.253,754.3,01.17,0.508
2016-05-10 03:14:00,1829E-3,5C000400,-0724,0834,12038,029.5,045.5,0.253,754.3,01.17,0.508
2016-05-10 03:15:00,1760E-3,5C000400,-0724,0834,12021,029.5,045.5,0.252,754.3,01.17,0.508
2016-05-10 03:16:00,1797E-3,5C000400,-0724,0834,12241,029.5,045.5,0.253,754.3,01.17,0.508
2016-05-10 03:17:00,1886E-3,5C000400,-0724,0834,12166,029.5,045.5,0.253,754.3,01.17,0.508
2016-05-10 03:18:00,1885E-3,5C000400,-0724,0833,12020,029.5,045.5,0.253,754.4,01.17,0.508
2016-05-10 03:19:00,1895E-3,5C000400,-0724,0834,12184,029.5,045.5,0.253,754.4,01.17,0.508
2016-05-10 03:20:00,1831E-3,5C000400,-0724,0834,12123,029.5,045.5,0.252,754.4,01.17,0.508
2016-05-10 03:21:00,1950E-3,5C000400,-0724,0834,12170,029.5,045.5,0.253,754.4,01.17,0.508
2016-05-10 03:22:00,1799E-3,5C000400,-0724,0834,12211,029.5,045.5,0.252,754.4,01.17,0.508
2016-05-10 03:23:00,1944E-3,5C000400,-0724,0833,12280,029.5,045.5,0.253,754.4,01.17,0.508
2016-05-10 03:24:00,1995E-3,5C000400,-0724,0834,12123,029.6,045.5,0.252,754.4,01.17,0.508
2016-05-10 03:25:00,1760E-3,5C000400,-0724,0833,12231,029.5,045.5,0.253,754.5,01.17,0.508
2016-05-10 03:26:00,1961E-3,5C000400,-0724,0834,12158,029.5,045.5,0.252,754.4,01.17,0.508
2016-05-10 03:27:00,2007E-3,5C000400,-0724,0833,12205,029.5,045.5,0.253,754.4,01.17,0.508
2016-05-10 03:28:00,1745E-3,5C000400,-0724,0834,12210,029.6,045.5,0.252,754.4,01.17,0.508
2016-05-10 03:29:00,1974E-3,5C000400,-0724,0834,12119,029.6,045.5,0.253,754.4,01.17,0.508
2016-05-10 03:30:00,1896E-3,5C000400,-0724,0834,12164,029.6,045.5,0.252,754.4,01.17,0.508
2016-05-10 03:31:00,1943E-3,5C000400,-0724,0834,12190,029.6,045.5,0.253,754.4,01.17,0.508
2016-05-10 03:32:00,1943E-3,5C000400,-0724,0833,12015,029.6,045.5,0.252,754.4,01.17,0.508
2016-05-10 03:33:00,1901E-3,5C000400,-0724,0833,12154,029.6,045.5,0.253,754.4,01.17,0.508
2016-05-10 03:34:00,1965E-3,5C000400,-0724,0834,12115,029.6,045.5,0.252,754.4,01.17,0.508
2016-05-10 03:35:00,1829E-3,5C000400,-0724,0833,12201,029.6,045.4,0.252,754.4,01.17,0.508
2016-05-10 03:36:00,1833E-3,5C000400,-0724,0834,12238,029.6,045.5,0.252,754.4,01.17,0.508
2016-05-10 03:37:00,1958E-3,5C000400,-0724,0834,12175,029.6,045.5,0.252,754.4,01.17,0.508
2016-05-10 03:38:00,1876E-3,5C000400,-0724,0834,12104,029.6,045.5,0.252,754.4,01.17,0.508
2016-05-10 03:39:00,1845E-3,5C000400,-0724,0834,12157,029.6,045.5,0.252,754.3,01.17,0.508
2016-05-10 03:40:00,1877E-3,5C000400,-0724,0834,12318,029.6,045.5,0.252,754.3,01.17,0.508
2016-05-10 03:41:00,1952E-3,5C000400,-0724,0834,12192,029.6,045.5,0.252,754.3,01.17,0.508
2016-05-10 03:42:00,1900E-3,5C000400,-0724,0833,12146,029.6,045.5,0.252,754.4,01.17,0.508
2016-05-10 03:43:00,1814E-3,5C000400,-0724,0834,12203,029.6,045.5,0.252,754.3,01.17,0.508
2016-05-10 03:44:00,1824E-3,5C000400,-0724,0834,12213,029.6,045.5,0.252,754.3,01.17,0.508
2016-05-10 03:45:00,1922E-3,5C000400,-0724,0834,12146,029.6,045.5,0.252,754.3,01.17,0.508
2016-05-10 03:46:00,1757E-3,5C000400,-0724,0834,12178,029.6,045.5,0.252,754.3,01.17,0.508
2016-05-10 03:47:00,1886E-3,5C000400,-0724,0833,12202,029.6,045.5,0.252,754.3,01.17,0.508
2016-05-10 03:48:00,1998E-3,5C000400,-0724,0834,12219,029.7,045.5,0.252,754.4,01.17,0.508
2016-05-10 03:49:00,2012E-3,5C000400,-0724,0834,12066,029.6,045.4,0.252,754.4,01.17,0.508
2016-05-10 03:50:00,1832E-3,5C000400,-0724,0833,12118,029.6,045.5,0.252,754.4,01.17,0.508
2016-05-10 03:51:00,1804E-3,5C000400,-0724,0833,12164,029.7,045.5,0.252,754.4,01.17,0.508
2016-05-10 03:52:00,1936E-3,5C000400,-0724,0834,12170,029.7,045.5,0.252,754.3,01.17,0.508
2016-05-10 03:53:00,1836E-3,5C000400,-0724,0834,12171,029.7,045.5,0.252,754.4,01.17,0.508
2016-05-10 03:54:00,1778E-3,5C000400,-0724,0834,12130,029.6,045.5,0.252,754.4,01.17,0.508
2016-05-10 03:55:00,1966E-3,5C000400,-0724,0834,12237,029.7,045.5,0.252,754.4,01.17,0.508
2016-05-10 03:56:00,1892E-3,5C000400,-0724,0834,12110,029.7,045.5,0.252,754.4,01.17,0.508
2016-05-10 03:57:00,1888E-3,5C000400,-0724,0833,12129,029.7,045.5,0.252,754.4,01.17,0.508
2016-05-10 03:58:00,1899E-3,5C000400,-0724,0834,12079,029.7,045.5,0.252,754.4,01.17,0.508
2016-05-10 03:59:00,1824E-3,5C000400,-0724,0833,12060,029.7,045.5,0.252,754.3,01.17,0.508
2016-05-10 04:00:00,1829E-3,5C000400,-0724,0833,12022,029.7,045.5,0.252,754.4,01.17,0.508
2016-05-10 04:01:00,1876E-3,5C000400,-0724,0833,12064,029.7,045.5,0.252,754.4,01.17,0.508
2016-05-10 04:02:00,1876E-3,5C000400,-0724,0834,12089,029.7,045.5,0.252,754.4,01.17,0.508
2016-05-10 04:03:00,1931E-3,5C000400,-0724,0834,12183,029.7,045.5,0.252,754.4,01.17,0.508
2016-05-10 04:04:00,1806E-3,5C000400,-0724,0833,12225,029.7,045.5,0.252,754.4,01.17,0.508
2016-05-10 04:05:00,1888E-3,5C000400,-0724,0833,12010,029.7,045.5,0.252,754.4,01.17,0.508
2016-05-10 04:06:00,1963E-3,5C000400,-0724,0834,12162,029.7,045.5,0.252,754.4,01.17,0.508
2016-05-10 04:07:00,1915E-3,5C000400,-0724,0834,11921,029.7,045.5,0.252,754.4,01.17,0.508
2016-05-10 04:08:00,1921E-3,5C000400,-0724,0833,12177,029.7,045.5,0.253,754.4,01.17,0.508
2016-05-10 04:09:00,2035E-3,5C000400,-0724,0834,12119,029.7,045.5,0.252,754.4,01.17,0.508
2016-05-10 04:10:00,1803E-3,5C000400,-0724,0833,12066,029.7,045.5,0.253,754.4,01.17,0.508
2016-05-10 04:11:00,1814E-3,5C000400,-0724,0834,12235,029.7,045.5,0.252,754.5,01.17,0.508
2016-05-10 04:12:00,1944E-3,5C000400,-0724,0833,12241,029.8,045.5,0.252,754.5,01.17,0.508
2016-05-10 04:13:00,1967E-3,5C000400,-0724,0834,12243,029.8,045.5,0.252,754.5,01.17,0.508
2016-05-10 04:14:00,1841E-3,5C000400,-0724,0834,12103,029.8,045.5,0.252,754.5,01.17,0.508
2016-05-10 04:15:00,2014E-3,5C000400,-0724,0834,12063,029.8,045.5,0.252,754.5,01.17,0.508
2016-05-10 04:16:00,1974E-3,5C000400,-0724,0834,12213,029.8,045.5,0.252,754.5,01.17,0.508
2016-05-10 04:17:00,1836E-3,5C000400,-0724,0833,12203,029.8,045.5,0.252,754.5,01.17,0.508
2016-05-10 04:18:00,1953E-3,5C000400,-0724,0834,12217,029.8,045.5,0.252,754.5,01.17,0.508
2016-05-10 04:19:00,1973E-3,5C000400,-0724,0834,12099,029.8,045.5,0.252,754.5,01.17,0.508
2016-05-10 04:20:00,1895E-3,5C000400,-0724,0834,12191,029.8,045.5,0.252,754.5,01.17,0.508